| time (UTC) | temp F | wind direction | speed MPH | gust MPH | rain 1hr in | rain 24hr in | rain mn in | humidity % | barometer mb |
| 20260902200253 | 71 | 268 | 0.0 | 0.0 | 0.00 | 0.00 | 0.00 | 82 | 1019.2 |
| 20260902195755 | 71 | 268 | 0.0 | 0.0 | 0.00 | 0.00 | 0.00 | 82 | 1019.2 |
| 20260902195319 | 71 | 267 | 0.0 | 0.0 | 0.00 | 0.05 | 0.00 | 82 | 1019.3 |
| 20260902194801 | 71 | 268 | 0.0 | 0.0 | 0.00 | 0.05 | 0.00 | 82 | 1019.3 |
| 20260902194302 | 71 | 267 | 0.0 | 0.0 | 0.00 | 0.05 | 0.00 | 82 | 1019.3 |
| 20260902193805 | 71 | 268 | 0.0 | 0.0 | 0.00 | 0.05 | 0.00 | 80 | 1019.3 |
| 20260902193304 | 71 | 268 | 0.0 | 0.0 | 0.00 | 0.05 | 0.00 | 80 | 1019.3 |
| 20260902192747 | 71 | 267 | 0.0 | 0.0 | 0.00 | 0.05 | 0.00 | 82 | 1019.3 |
| 20260902192248 | 71 | 267 | 0.0 | 0.0 | 0.00 | 0.05 | 0.00 | 80 | 1019.7 |
| 20260902191806 | 72 | 267 | 0.0 | 0.0 | 0.00 | 0.05 | 0.00 | 80 | 1019.7 |
| 20260902191312 | 72 | 267 | 0.0 | 0.0 | 0.00 | 0.05 | 0.00 | 78 | 1019.7 |
| 20260902190811 | 72 | 268 | 0.0 | 0.0 | 0.00 | 0.05 | 0.00 | 78 | 1019.8 |
| 20260902190250 | 72 | 267 | 0.0 | 0.0 | 0.00 | 0.05 | 0.00 | 79 | 1019.8 |
| 20260902185754 | 72 | 268 | 0.0 | 0.0 | 0.00 | 0.05 | 0.00 | 78 | 1019.8 |
| 20260902185257 | 71 | 268 | 0.0 | 0.0 | 0.00 | 0.15 | 0.00 | 77 | 1019.5 |
| 20260902184821 | 71 | 268 | 0.0 | 0.0 | 0.00 | 0.15 | 0.00 | 78 | 1019.5 |
| 20260902184247 | 71 | 268 | 0.0 | 0.0 | 0.00 | 0.15 | 0.00 | 79 | 1019.5 |
| 20260902183752 | 71 | 268 | 0.0 | 0.0 | 0.00 | 0.15 | 0.00 | 77 | 1019.6 |
| 20260902183254 | 71 | 268 | 0.0 | 0.0 | 0.00 | 0.15 | 0.00 | 78 | 1019.6 |
| 20260902182753 | 71 | 268 | 0.0 | 0.0 | 0.00 | 0.15 | 0.00 | 78 | 1019.6 |
| 20260902182259 | 72 | 268 | 0.0 | 1.0 | 0.00 | 0.15 | 0.00 | 78 | 1019.7 |
| 20260902181801 | 72 | 268 | 0.0 | 1.0 | 0.00 | 0.15 | 0.00 | 78 | 1019.7 |
| 20260902181302 | 72 | 268 | 0.0 | 0.0 | 0.00 | 0.15 | 0.00 | 79 | 1019.7 |
| 20260902180801 | 72 | 268 | 0.0 | 1.0 | 0.00 | 0.15 | 0.00 | 79 | 1019.7 |
| 20260902180254 | 72 | 268 | 0.0 | 1.0 | 0.00 | 0.15 | 0.00 | 78 | 1019.7 |
| 20260902175752 | 72 | 267 | 0.0 | 0.0 | 0.00 | 0.15 | 0.00 | 78 | 1019.7 |
| 20260902175257 | 72 | 360 | 0.0 | 0.0 | 0.00 | 0.25 | 0.00 | 78 | 1019.9 |
| 20260902174801 | 72 | 360 | 0.0 | 2.0 | 0.00 | 0.25 | 0.00 | 77 | 1019.9 |
| 20260902174325 | 71 | 267 | 0.0 | 2.0 | 0.00 | 0.25 | 0.00 | 78 | 1019.9 |
| 20260902173804 | 71 | 267 | 0.0 | 3.0 | 0.00 | 0.25 | 0.00 | 78 | 1020.0 |
| 20260902173302 | 71 | 267 | 1.0 | 3.0 | 0.00 | 0.25 | 0.00 | 80 | 1020.0 |
| 20260902172803 | 71 | 268 | 0.0 | 1.0 | 0.00 | 0.25 | 0.00 | 81 | 1020.0 |
| 20260902172308 | 71 | 268 | 0.0 | 1.0 | 0.00 | 0.25 | 0.00 | 81 | 1019.9 |
| 20260902171805 | 71 | 268 | 0.0 | 1.0 | 0.00 | 0.25 | 0.00 | 81 | 1019.9 |
| 20260902171247 | 71 | 268 | 0.0 | 1.0 | 0.00 | 0.25 | 0.00 | 82 | 1019.9 |
| 20260902170803 | 70 | 268 | 0.0 | 1.0 | 0.00 | 0.25 | 0.00 | 81 | 1019.9 |
| 20260902170250 | 70 | 268 | 0.0 | 4.0 | 0.00 | 0.25 | 0.00 | 82 | 1019.9 |
| 20260902165749 | 70 | 268 | 0.0 | 4.0 | 0.00 | 0.25 | 0.00 | 82 | 1019.9 |
| 20260902165249 | 70 | 360 | 0.0 | 1.0 | 0.00 | 0.37 | 0.00 | 84 | 1019.9 |
| 20260902164751 | 70 | 360 | 0.0 | 3.0 | 0.00 | 0.37 | 0.00 | 84 | 1019.9 |
| 20260902164253 | 70 | 360 | 1.0 | 3.0 | 0.00 | 0.37 | 0.00 | 83 | 1019.9 |
| 20260902163754 | 69 | 360 | 1.0 | 2.0 | 0.00 | 0.37 | 0.00 | 84 | 1020.3 |
| 20260902163323 | 69 | 360 | 0.0 | 2.0 | 0.00 | 0.37 | 0.00 | 84 | 1020.3 |
| 20260902162804 | 69 | 360 | 0.0 | 2.0 | 0.00 | 0.37 | 0.00 | 85 | 1020.3 |
| 20260902162307 | 69 | 360 | 0.0 | 0.0 | 0.00 | 0.37 | 0.00 | 87 | 1020.6 |
| 20260902161822 | 68 | 360 | 0.0 | 0.0 | 0.00 | 0.37 | 0.00 | 87 | 1020.6 |
| 20260902161305 | 68 | 360 | 0.0 | 1.0 | 0.00 | 0.37 | 0.00 | 89 | 1020.6 |
| 20260902160824 | 68 | 360 | 0.0 | 2.0 | 0.00 | 0.37 | 0.00 | 88 | 1020.7 |
| 20260902160258 | 68 | 360 | 0.0 | 1.0 | 0.00 | 0.37 | 0.00 | 89 | 1020.7 |
| 20260902155754 | 67 | 360 | 0.0 | 0.0 | 0.00 | 0.37 | 0.00 | 89 | 1020.7 |
| 20260902155253 | 67 | 360 | 0.0 | 1.0 | 0.00 | 0.40 | 0.00 | 89 | 1020.8 |
| 20260902154756 | 67 | 360 | 0.0 | 1.0 | 0.00 | 0.40 | 0.00 | 90 | 1020.8 |
| 20260902154254 | 67 | 360 | 0.0 | 2.0 | 0.00 | 0.40 | 0.00 | 91 | 1020.8 |
| 20260902153757 | 66 | 360 | 0.0 | 3.0 | 0.00 | 0.40 | 0.00 | 91 | 1020.9 |
| 20260902153258 | 66 | 360 | 1.0 | 3.0 | 0.00 | 0.40 | 0.00 | 92 | 1020.9 |
| 20260902152802 | 66 | 360 | 0.0 | 0.0 | 0.00 | 0.40 | 0.00 | 93 | 1020.9 |
| 20260902152324 | 66 | 360 | 0.0 | 0.0 | 0.00 | 0.40 | 0.00 | 93 | 1021.1 |
| 20260902151806 | 65 | 227 | 0.0 | 0.0 | 0.00 | 0.40 | 0.00 | 93 | 1021.1 |
| 20260902151259 | 66 | 227 | 0.0 | 0.0 | 0.00 | 0.40 | 0.00 | 94 | 1021.1 |
| 20260902150758 | 65 | 227 | 0.0 | 0.0 | 0.00 | 0.40 | 0.00 | 94 | 1021.4 |
| 20260902150254 | 65 | 227 | 0.0 | 0.0 | 0.00 | 0.40 | 0.00 | 94 | 1021.4 |
| 20260902145814 | 65 | 227 | 0.0 | 2.0 | 0.00 | 0.40 | 0.00 | 94 | 1021.4 |
| 20260902145251 | 65 | 227 | 1.0 | 2.0 | 0.00 | 0.41 | 0.00 | 95 | 1021.3 |
| 20260902144748 | 65 | 227 | 0.0 | 2.0 | 0.00 | 0.41 | 0.00 | 95 | 1021.3 |
| 20260902144252 | 65 | 227 | 0.0 | 1.0 | 0.00 | 0.41 | 0.00 | 96 | 1021.3 |
| 20260902143755 | 65 | 227 | 0.0 | 1.0 | 0.00 | 0.41 | 0.00 | 95 | 1021.1 |
| 20260902143256 | 65 | 227 | 0.0 | 0.0 | 0.00 | 0.41 | 0.00 | 96 | 1021.1 |
| 20260902142815 | 65 | 227 | 0.0 | 0.0 | 0.00 | 0.41 | 0.00 | 96 | 1021.1 |
| 20260902142257 | 64 | 227 | 0.0 | 0.0 | 0.00 | 0.41 | 0.00 | 96 | 1021.0 |
| 20260902141756 | 65 | 227 | 0.0 | 0.0 | 0.00 | 0.41 | 0.00 | 96 | 1021.0 |
| 20260902141320 | 65 | 227 | 0.0 | 0.0 | 0.00 | 0.41 | 0.00 | 96 | 1021.0 |
| 20260902140758 | 64 | 227 | 0.0 | 0.0 | 0.00 | 0.41 | 0.00 | 97 | 1021.0 |
| 20260902140313 | 64 | 227 | 0.0 | 0.0 | 0.00 | 0.41 | 0.00 | 96 | 1021.0 |
| 20260902135754 | 64 | 227 | 0.0 | 0.0 | 0.00 | 0.41 | 0.00 | 97 | 1021.0 |
| 20260902135256 | 64 | 227 | 0.0 | 0.0 | 0.00 | 0.41 | 0.00 | 97 | 1020.7 |
| 20260902134756 | 64 | 227 | 0.0 | 0.0 | 0.00 | 0.41 | 0.00 | 97 | 1020.7 |
| 20260902134256 | 64 | 227 | 0.0 | 0.0 | 0.00 | 0.41 | 0.00 | 96 | 1020.7 |
| 20260902133755 | 64 | 227 | 0.0 | 0.0 | 0.00 | 0.41 | 0.00 | 97 | 1020.4 |
| 20260902133250 | 64 | 227 | 0.0 | 0.0 | 0.00 | 0.41 | 0.00 | 97 | 1020.4 |
| 20260902132759 | 63 | 227 | 0.0 | 0.0 | 0.00 | 0.41 | 0.00 | 97 | 1020.4 |
| 20260902132306 | 63 | 227 | 0.0 | 0.0 | 0.00 | 0.41 | 0.00 | 97 | 1020.6 |
| 20260902131801 | 63 | 227 | 0.0 | 2.0 | 0.00 | 0.41 | 0.00 | 97 | 1020.6 |
| 20260902131309 | 63 | 227 | 1.0 | 1.0 | 0.00 | 0.41 | 0.00 | 97 | 1020.6 |
| 20260902130748 | 63 | 227 | 0.0 | 0.0 | 0.00 | 0.41 | 0.00 | 97 | 1020.7 |
| 20260902130302 | 63 | 227 | 0.0 | 0.0 | 0.00 | 0.41 | 0.00 | 97 | 1020.7 |
| 20260902125803 | 63 | 180 | 0.0 | 0.0 | 0.00 | 0.41 | 0.00 | 97 | 1020.7 |
| 20260902125249 | 63 | 180 | 0.0 | 0.0 | 0.00 | 0.46 | 0.00 | 97 | 1020.6 |
| 20260902124750 | 63 | 180 | 0.0 | 0.0 | 0.00 | 0.46 | 0.00 | 97 | 1020.6 |
| 20260902124248 | 63 | 180 | 0.0 | 0.0 | 0.00 | 0.46 | 0.00 | 97 | 1020.6 |
| 20260902123749 | 63 | 317 | 0.0 | 0.0 | 0.00 | 0.46 | 0.00 | 97 | 1020.6 |
| 20260902123301 | 63 | 360 | 0.0 | 0.0 | 0.00 | 0.46 | 0.00 | 97 | 1020.6 |
| 20260902122820 | 63 | 360 | 0.0 | 0.0 | 0.00 | 0.46 | 0.00 | 97 | 1020.6 |
| 20260902122321 | 63 | 360 | 0.0 | 0.0 | 0.00 | 0.46 | 0.00 | 97 | 1020.6 |
| 20260902121819 | 63 | 360 | 0.0 | 0.0 | 0.00 | 0.46 | 0.00 | 97 | 1020.6 |
| 20260902121257 | 63 | 360 | 0.0 | 0.0 | 0.00 | 0.46 | 0.00 | 97 | 1020.6 |
| 20260902120804 | 62 | 360 | 0.0 | 0.0 | 0.00 | 0.46 | 0.00 | 97 | 1020.6 |
| 20260902120258 | 62 | 360 | 0.0 | 0.0 | 0.00 | 0.46 | 0.00 | 97 | 1020.6 |
| 20260902115801 | 62 | 360 | 0.0 | 0.0 | 0.00 | 0.46 | 0.00 | 97 | 1020.6 |
| 20260902115308 | 62 | 360 | 0.0 | 0.0 | 0.00 | 0.62 | 0.00 | 97 | 1020.7 |
| 20260902114806 | 62 | 360 | 0.0 | 0.0 | 0.00 | 0.62 | 0.00 | 97 | 1020.7 |
| 20260902114245 | 62 | 360 | 0.0 | 0.0 | 0.00 | 0.62 | 0.00 | 97 | 1020.7 |
| 20260902113803 | 62 | 360 | 0.0 | 0.0 | 0.00 | 0.62 | 0.00 | 97 | 1020.9 |
| 20260902113303 | 62 | 360 | 0.0 | 0.0 | 0.00 | 0.62 | 0.00 | 97 | 1020.9 |
| 20260902112746 | 62 | 360 | 0.0 | 0.0 | 0.00 | 0.62 | 0.00 | 97 | 1020.9 |
| 20260902112252 | 62 | 360 | 0.0 | 0.0 | 0.00 | 0.62 | 0.00 | 97 | 1020.9 |
| 20260902111754 | 62 | 360 | 0.0 | 0.0 | 0.00 | 0.62 | 0.00 | 97 | 1020.9 |
| 20260902111249 | 62 | 360 | 0.0 | 0.0 | 0.00 | 0.62 | 0.00 | 97 | 1020.9 |
| 20260902110812 | 62 | 360 | 0.0 | 0.0 | 0.00 | 0.62 | 0.00 | 97 | 1020.7 |
| 20260902110304 | 62 | 360 | 0.0 | 0.0 | 0.00 | 0.62 | 0.00 | 97 | 1020.7 |
| 20260902105824 | 62 | 360 | 0.0 | 0.0 | 0.00 | 0.62 | 0.00 | 97 | 1020.7 |
| 20260902105249 | 62 | 360 | 0.0 | 0.0 | 0.00 | 0.71 | 0.00 | 97 | 1020.7 |
| 20260902104808 | 62 | 360 | 0.0 | 0.0 | 0.00 | 0.71 | 0.00 | 97 | 1020.7 |
| 20260902104249 | 62 | 360 | 0.0 | 0.0 | 0.00 | 0.71 | 0.00 | 97 | 1020.7 |
| 20260902103751 | 62 | 360 | 0.0 | 0.0 | 0.00 | 0.71 | 0.00 | 97 | 1020.6 |
| 20260902103422 | 62 | 360 | 0.0 | 0.0 | 0.00 | 0.71 | 0.00 | 97 | 1020.6 |
| 20260902102805 | 62 | 360 | 0.0 | 0.0 | 0.00 | 0.71 | 0.00 | 97 | 1020.6 |
| 20260902102250 | 62 | 360 | 0.0 | 0.0 | 0.00 | 0.71 | 0.00 | 97 | 1020.3 |
| 20260902101754 | 62 | 360 | 0.0 | 0.0 | 0.00 | 0.71 | 0.00 | 97 | 1020.3 |
| 20260902101251 | 62 | 360 | 0.0 | 0.0 | 0.00 | 0.71 | 0.00 | 97 | 1020.3 |
| 20260902100754 | 62 | 360 | 0.0 | 0.0 | 0.00 | 0.71 | 0.00 | 97 | 1020.3 |
| 20260902100251 | 62 | 360 | 0.0 | 0.0 | 0.00 | 0.71 | 0.00 | 97 | 1020.3 |
| 20260902095756 | 62 | 360 | 0.0 | 0.0 | 0.00 | 0.71 | 0.00 | 97 | 1020.3 |
| 20260902095322 | 62 | 360 | 0.0 | 0.0 | 0.00 | 0.74 | 0.00 | 97 | 1020.0 |
| 20260902094819 | 62 | 360 | 0.0 | 0.0 | 0.00 | 0.74 | 0.00 | 97 | 1020.0 |
| 20260902094318 | 62 | 360 | 0.0 | 0.0 | 0.00 | 0.74 | 0.00 | 97 | 1020.0 |
| 20260902093759 | 62 | 360 | 0.0 | 0.0 | 0.00 | 0.74 | 0.00 | 97 | 1019.9 |
| 20260902093304 | 62 | 360 | 0.0 | 0.0 | 0.00 | 0.74 | 0.00 | 97 | 1019.9 |
| 20260902092806 | 62 | 360 | 0.0 | 0.0 | 0.00 | 0.74 | 0.00 | 97 | 1019.9 |
| 20260902092248 | 62 | 360 | 0.0 | 0.0 | 0.00 | 0.74 | 0.00 | 97 | 1019.8 |
| 20260902091748 | 62 | 360 | 0.0 | 0.0 | 0.00 | 0.74 | 0.00 | 97 | 1019.8 |
| 20260902091305 | 62 | 360 | 0.0 | 0.0 | 0.00 | 0.74 | 0.00 | 97 | 1019.8 |
| 20260902090806 | 62 | 360 | 0.0 | 0.0 | 0.00 | 0.74 | 0.00 | 97 | 1019.8 |
| 20260902090248 | 62 | 360 | 0.0 | 0.0 | 0.00 | 0.74 | 0.00 | 97 | 1019.8 |
| 20260902085805 | 62 | 360 | 0.0 | 0.0 | 0.00 | 0.74 | 0.00 | 97 | 1019.8 |
| 20260902085306 | 62 | 360 | 0.0 | 0.0 | 0.00 | 0.74 | 0.00 | 97 | 1019.8 |
| 20260902084748 | 62 | 360 | 0.0 | 0.0 | 0.00 | 0.74 | 0.00 | 97 | 1019.8 |
| 20260902084305 | 62 | 360 | 0.0 | 0.0 | 0.00 | 0.74 | 0.00 | 97 | 1019.8 |
| 20260902083747 | 62 | 360 | 0.0 | 0.0 | 0.00 | 0.74 | 0.00 | 97 | 1019.5 |
| 20260902083252 | 62 | 360 | 0.0 | 0.0 | 0.00 | 0.74 | 0.00 | 97 | 1019.5 |
| 20260902082752 | 62 | 360 | 0.0 | 0.0 | 0.00 | 0.74 | 0.00 | 97 | 1019.5 |
| 20260902082309 | 62 | 360 | 0.0 | 0.0 | 0.00 | 0.74 | 0.00 | 97 | 1019.7 |
| 20260902081745 | 62 | 360 | 0.0 | 0.0 | 0.00 | 0.74 | 0.00 | 97 | 1019.7 |
| 20260902081248 | 62 | 360 | 0.0 | 0.0 | 0.00 | 0.74 | 0.00 | 97 | 1019.7 |
| 20260902080806 | 62 | 360 | 0.0 | 0.0 | 0.00 | 0.74 | 0.00 | 97 | 1019.8 |
| 20260902080320 | 62 | 360 | 0.0 | 0.0 | 0.00 | 0.74 | 0.00 | 97 | 1019.8 |
| 20260902075801 | 62 | 360 | 0.0 | 0.0 | 0.00 | 0.74 | 0.00 | 97 | 1019.8 |
| 20260902075258 | 62 | 360 | 0.0 | 0.0 | 0.00 | 0.74 | 0.00 | 96 | 1019.7 |
| 20260902074812 | 62 | 360 | 0.0 | 0.0 | 0.00 | 0.74 | 0.00 | 96 | 1019.7 |
| 20260902074251 | 62 | 360 | 0.0 | 0.0 | 0.00 | 0.74 | 0.00 | 96 | 1019.7 |
| 20260902073809 | 62 | 360 | 0.0 | 0.0 | 0.00 | 0.74 | 0.00 | 96 | 1019.5 |
| 20260902073251 | 62 | 360 | 0.0 | 0.0 | 0.00 | 0.74 | 0.00 | 96 | 1019.5 |
| 20260902072756 | 62 | 360 | 0.0 | 0.0 | 0.00 | 0.74 | 0.00 | 96 | 1019.5 |
| 20260902072308 | 62 | 360 | 0.0 | 0.0 | 0.00 | 0.74 | 0.00 | 96 | 1019.6 |
| 20260902071803 | 62 | 360 | 0.0 | 0.0 | 0.00 | 0.74 | 0.00 | 96 | 1019.6 |
| 20260902071248 | 62 | 360 | 0.0 | 0.0 | 0.00 | 0.74 | 0.00 | 96 | 1019.6 |
| 20260902070811 | 62 | 360 | 0.0 | 0.0 | 0.00 | 0.74 | 0.00 | 96 | 1019.7 |
| 20260902070303 | 62 | 360 | 0.0 | 0.0 | 0.00 | 0.74 | 0.00 | 96 | 1019.7 |
| 20260902065757 | 62 | 360 | 0.0 | 0.0 | 0.00 | 0.74 | 0.00 | 96 | 1019.7 |
| 20260902065253 | 62 | 360 | 0.0 | 0.0 | 0.00 | 0.75 | 0.00 | 96 | 1019.9 |
| 20260902064821 | 62 | 360 | 0.0 | 0.0 | 0.00 | 0.75 | 0.00 | 96 | 1019.9 |
| 20260902064303 | 62 | 360 | 0.0 | 0.0 | 0.00 | 0.75 | 0.00 | 96 | 1019.9 |
| 20260902063804 | 62 | 360 | 0.0 | 0.0 | 0.00 | 0.75 | 0.00 | 96 | 1019.8 |
| 20260902063251 | 62 | 360 | 0.0 | 0.0 | 0.00 | 0.75 | 0.00 | 96 | 1019.8 |
| 20260902062800 | 62 | 360 | 0.0 | 0.0 | 0.00 | 0.75 | 0.00 | 96 | 1019.8 |
| 20260902062305 | 62 | 360 | 0.0 | 0.0 | 0.00 | 0.75 | 0.00 | 96 | 1019.7 |
| 20260902061804 | 62 | 360 | 0.0 | 0.0 | 0.00 | 0.75 | 0.00 | 96 | 1019.7 |
| 20260902061327 | 62 | 360 | 0.0 | 0.0 | 0.00 | 0.75 | 0.00 | 96 | 1019.7 |
| 20260902060813 | 62 | 360 | 0.0 | 0.0 | 0.00 | 0.75 | 0.00 | 96 | 1019.7 |
| 20260902060300 | 62 | 360 | 0.0 | 2.0 | 0.00 | 0.75 | 0.00 | 96 | 1019.7 |
| 20260902055802 | 62 | 360 | 0.0 | 2.0 | 0.00 | 0.75 | 0.00 | 96 | 1019.7 |
| 20260902055306 | 62 | 332 | 0.0 | 0.0 | 0.00 | 0.75 | 0.00 | 96 | 1019.6 |
| 20260902054810 | 62 | 331 | 0.0 | 0.0 | 0.00 | 0.75 | 0.00 | 96 | 1019.6 |
| 20260902054254 | 62 | 331 | 0.0 | 0.0 | 0.00 | 0.75 | 0.00 | 96 | 1019.6 |
| 20260902053823 | 62 | 331 | 0.0 | 0.0 | 0.00 | 0.75 | 0.00 | 96 | 1019.5 |
| 20260902053315 | 62 | 331 | 0.0 | 0.0 | 0.00 | 0.75 | 0.00 | 96 | 1019.5 |
| 20260902052827 | 62 | 331 | 0.0 | 0.0 | 0.00 | 0.75 | 0.00 | 96 | 1019.5 |
| 20260902052256 | 62 | 331 | 0.0 | 1.0 | 0.00 | 0.75 | 0.00 | 96 | 1019.3 |
| 20260902051804 | 62 | 331 | 0.0 | 1.0 | 0.00 | 0.75 | 0.00 | 96 | 1019.3 |
| 20260902051252 | 62 | 331 | 0.0 | 1.0 | 0.00 | 0.75 | 0.00 | 96 | 1019.3 |
| 20260902050749 | 62 | 331 | 0.0 | 1.0 | 0.00 | 0.75 | 0.00 | 96 | 1019.4 |
| 20260902050252 | 62 | 331 | 0.0 | 0.0 | 0.00 | 0.75 | 0.00 | 96 | 1019.4 |
| 20260902045758 | 62 | 331 | 0.0 | 0.0 | 0.00 | 0.75 | 0.00 | 96 | 1019.4 |
| 20260902045248 | 62 | 331 | 0.0 | 0.0 | 0.00 | 0.75 | 0.00 | 96 | 1019.3 |
| 20260902044753 | 62 | 331 | 0.0 | 0.0 | 0.00 | 0.75 | 0.00 | 96 | 1019.3 |
| 20260902044310 | 62 | 331 | 0.0 | 0.0 | 0.00 | 0.75 | 0.00 | 96 | 1019.3 |
| 20260902043751 | 62 | 331 | 0.0 | 0.0 | 0.00 | 0.75 | 0.00 | 96 | 1018.9 |
| 20260902043254 | 62 | 331 | 0.0 | 0.0 | 0.00 | 0.75 | 0.00 | 96 | 1018.9 |
| 20260902042754 | 62 | 331 | 0.0 | 0.0 | 0.00 | 0.75 | 0.00 | 96 | 1018.9 |
| 20260902042254 | 62 | 331 | 0.0 | 0.0 | 0.00 | 0.75 | 0.00 | 96 | 1018.5 |
| 20260902041819 | 62 | 331 | 0.0 | 0.0 | 0.00 | 0.75 | 0.00 | 96 | 1018.5 |
| 20260902041257 | 62 | 331 | 0.0 | 0.0 | 0.00 | 0.75 | 0.00 | 96 | 1018.5 |
| 20260902040818 | 62 | 331 | 0.0 | 0.0 | 0.00 | 0.75 | 0.00 | 96 | 1018.4 |
| 20260902040255 | 62 | 331 | 0.0 | 0.0 | 0.00 | 0.75 | 0.00 | 96 | 1018.4 |
| 20260902035754 | 63 | 331 | 0.0 | 0.0 | 0.00 | 0.75 | 0.00 | 96 | 1018.4 |
| 20260902035256 | 63 | 331 | 0.0 | 0.0 | 0.00 | 0.75 | 0.75 | 96 | 1018.3 |
| 20260902034753 | 63 | 331 | 0.0 | 0.0 | 0.00 | 0.75 | 0.75 | 96 | 1018.3 |
| 20260902034255 | 63 | 331 | 0.0 | 0.0 | 0.00 | 0.75 | 0.75 | 96 | 1018.3 |
| 20260902033752 | 63 | 331 | 0.0 | 0.0 | 0.00 | 0.75 | 0.75 | 96 | 1018.0 |
| 20260902033251 | 63 | 331 | 0.0 | 0.0 | 0.00 | 0.75 | 0.75 | 96 | 1018.0 |
| 20260902032758 | 63 | 331 | 0.0 | 0.0 | 0.00 | 0.75 | 0.75 | 96 | 1018.0 |
| 20260902032323 | 63 | 331 | 0.0 | 0.0 | 0.00 | 0.75 | 0.75 | 96 | 1018.2 |
| 20260902031801 | 63 | 331 | 0.0 | 0.0 | 0.00 | 0.75 | 0.75 | 96 | 1018.2 |
| 20260902031259 | 63 | 331 | 0.0 | 0.0 | 0.00 | 0.75 | 0.75 | 96 | 1018.2 |
| 20260902030758 | 63 | 331 | 0.0 | 0.0 | 0.00 | 0.75 | 0.75 | 96 | 1018.2 |
| 20260902030252 | 63 | 331 | 0.0 | 0.0 | 0.00 | 0.75 | 0.75 | 96 | 1018.2 |
| 20260902025758 | 63 | 331 | 0.0 | 0.0 | 0.00 | 0.75 | 0.75 | 96 | 1018.2 |
| 20260902025258 | 63 | 331 | 0.0 | 0.0 | 0.00 | 0.75 | 0.75 | 96 | 1018.3 |
| 20260902024815 | 63 | 331 | 0.0 | 0.0 | 0.00 | 0.75 | 0.75 | 96 | 1018.3 |
| 20260902024254 | 63 | 331 | 0.0 | 0.0 | 0.00 | 0.75 | 0.75 | 96 | 1018.3 |
| 20260902023819 | 63 | 331 | 0.0 | 0.0 | 0.00 | 0.75 | 0.75 | 96 | 1018.3 |
| 20260902023300 | 63 | 331 | 0.0 | 0.0 | 0.00 | 0.75 | 0.75 | 96 | 1018.3 |
| 20260902022825 | 63 | 331 | 0.0 | 0.0 | 0.00 | 0.75 | 0.75 | 96 | 1018.3 |
| 20260902022247 | 63 | 331 | 0.0 | 0.0 | 0.00 | 0.75 | 0.75 | 96 | 1018.3 |
| 20260902021819 | 64 | 331 | 0.0 | 0.0 | 0.00 | 0.75 | 0.75 | 96 | 1018.3 |
| 20260902021256 | 64 | 331 | 0.0 | 0.0 | 0.00 | 0.75 | 0.75 | 96 | 1018.3 |
| 20260902020759 | 64 | 331 | 0.0 | 3.0 | 0.00 | 0.75 | 0.75 | 96 | 1018.2 |
| 20260902020249 | 64 | 331 | 0.0 | 3.0 | 0.00 | 0.75 | 0.75 | 96 | 1018.2 |
| 20260902015752 | 64 | 18 | 0.0 | 1.0 | 0.00 | 0.75 | 0.75 | 96 | 1018.2 |
| 20260902015249 | 64 | 18 | 0.0 | 1.0 | 0.00 | 0.75 | 0.75 | 96 | 1018.3 |
| 20260902014749 | 64 | 18 | 0.0 | 1.0 | 0.00 | 0.75 | 0.75 | 96 | 1018.3 |
| 20260902014248 | 64 | 18 | 0.0 | 0.0 | 0.00 | 0.75 | 0.75 | 96 | 1018.3 |
| 20260902013805 | 64 | 18 | 0.0 | 0.0 | 0.00 | 0.75 | 0.75 | 96 | 1018.2 |
| 20260902013304 | 64 | 18 | 0.0 | 0.0 | 0.00 | 0.75 | 0.75 | 96 | 1018.2 |
| 20260902012747 | 64 | 18 | 0.0 | 0.0 | 0.00 | 0.75 | 0.75 | 96 | 1018.2 |
| 20260902012259 | 64 | 18 | 0.0 | 0.0 | 0.00 | 0.75 | 0.75 | 96 | 1018.2 |
| 20260902011757 | 64 | 18 | 0.0 | 0.0 | 0.00 | 0.75 | 0.75 | 96 | 1018.2 |
| 20260902011317 | 64 | 18 | 0.0 | 0.0 | 0.00 | 0.75 | 0.75 | 96 | 1018.2 |
| 20260902010755 | 64 | 18 | 0.0 | 0.0 | 0.00 | 0.75 | 0.75 | 96 | 1017.9 |
| 20260902010304 | 64 | 18 | 0.0 | 0.0 | 0.00 | 0.75 | 0.75 | 96 | 1017.9 |
| 20260902005801 | 64 | 18 | 0.0 | 0.0 | 0.00 | 0.75 | 0.75 | 96 | 1017.9 |
| 20260902005247 | 64 | 18 | 0.0 | 0.0 | 0.00 | 0.75 | 0.75 | 96 | 1017.7 |
| 20260902004809 | 64 | 18 | 0.0 | 0.0 | 0.00 | 0.75 | 0.75 | 96 | 1017.7 |
| 20260902004251 | 64 | 18 | 0.0 | 0.0 | 0.00 | 0.75 | 0.75 | 96 | 1017.7 |
| 20260902003754 | 64 | 18 | 0.0 | 0.0 | 0.00 | 0.75 | 0.75 | 96 | 1017.4 |
| 20260902003252 | 64 | 18 | 0.0 | 0.0 | 0.00 | 0.75 | 0.75 | 96 | 1017.4 |
| 20260902002755 | 64 | 18 | 0.0 | 0.0 | 0.00 | 0.75 | 0.75 | 96 | 1017.4 |
| 20260902002300 | 64 | 18 | 0.0 | 0.0 | 0.00 | 0.75 | 0.75 | 96 | 1017.4 |
| 20260902001802 | 64 | 18 | 0.0 | 1.0 | 0.00 | 0.75 | 0.75 | 95 | 1017.4 |
| 20260902001303 | 64 | 18 | 0.0 | 1.0 | 0.00 | 0.75 | 0.75 | 95 | 1017.4 |
| 20260902000806 | 64 | 18 | 0.0 | 0.0 | 0.00 | 0.75 | 0.75 | 95 | 1017.2 |
| 20260902000258 | 64 | 18 | 0.0 | 0.0 | 0.00 | 0.75 | 0.75 | 95 | 1017.2 |
| 20260901235758 | 64 | 18 | 0.0 | 0.0 | 0.00 | 0.75 | 0.75 | 95 | 1017.2 |
| 20260901235306 | 64 | 18 | 0.0 | 0.0 | 0.00 | 0.75 | 0.75 | 95 | 1017.2 |
| 20260901234803 | 64 | 18 | 0.0 | 0.0 | 0.00 | 0.75 | 0.75 | 95 | 1017.2 |
| 20260901234300 | 64 | 18 | 0.0 | 0.0 | 0.00 | 0.75 | 0.75 | 95 | 1017.2 |
| 20260901233820 | 64 | 18 | 0.0 | 0.0 | 0.00 | 0.75 | 0.75 | 95 | 1017.2 |
| 20260901233259 | 64 | 18 | 0.0 | 0.0 | 0.00 | 0.75 | 0.75 | 96 | 1017.2 |
| 20260901232822 | 64 | 18 | 0.0 | 0.0 | 0.00 | 0.75 | 0.75 | 96 | 1017.2 |
| 20260901232301 | 64 | 18 | 0.0 | 0.0 | 0.00 | 0.75 | 0.75 | 95 | 1017.1 |
| 20260901231801 | 64 | 18 | 0.0 | 0.0 | 0.00 | 0.75 | 0.75 | 95 | 1017.1 |
| 20260901231325 | 64 | 18 | 0.0 | 0.0 | 0.00 | 0.75 | 0.75 | 95 | 1017.1 |
| 20260901230759 | 64 | 18 | 0.0 | 0.0 | 0.00 | 0.75 | 0.75 | 95 | 1017.3 |
| 20260901230255 | 64 | 18 | 0.0 | 0.0 | 0.00 | 0.75 | 0.75 | 95 | 1017.3 |
| 20260901225814 | 64 | 18 | 0.0 | 0.0 | 0.00 | 0.75 | 0.75 | 95 | 1017.3 |
| 20260901225254 | 64 | 18 | 0.0 | 0.0 | 0.00 | 0.75 | 0.75 | 95 | 1017.3 |
| 20260901224800 | 64 | 18 | 0.0 | 0.0 | 0.00 | 0.75 | 0.75 | 95 | 1017.3 |
| 20260901224305 | 64 | 18 | 0.0 | 0.0 | 0.00 | 0.75 | 0.75 | 95 | 1017.3 |
| 20260901223803 | 64 | 18 | 0.0 | 2.0 | 0.00 | 0.75 | 0.75 | 95 | 1017.1 |
| 20260901223305 | 64 | 18 | 0.0 | 2.0 | 0.00 | 0.75 | 0.75 | 95 | 1017.1 |
| 20260901222802 | 64 | 18 | 0.0 | 3.0 | 0.00 | 0.75 | 0.75 | 95 | 1017.1 |
| 20260901222306 | 64 | 18 | 0.0 | 3.0 | 0.00 | 0.75 | 0.75 | 95 | 1016.9 |
| 20260901221747 | 65 | 311 | 0.0 | 3.0 | 0.00 | 0.75 | 0.75 | 95 | 1016.9 |
| 20260901221252 | 65 | 306 | 1.0 | 4.0 | 0.00 | 0.75 | 0.75 | 95 | 1016.9 |
| 20260901220747 | 65 | 287 | 1.0 | 4.0 | 0.00 | 0.75 | 0.75 | 95 | 1017.0 |
| 20260901220302 | 65 | 355 | 0.0 | 2.0 | 0.00 | 0.75 | 0.75 | 95 | 1017.0 |
| 20260901215802 | 65 | 355 | 0.0 | 0.0 | 0.00 | 0.75 | 0.75 | 95 | 1017.0 |
| 20260901215255 | 65 | 355 | 0.0 | 1.0 | 0.00 | 0.75 | 0.75 | 95 | 1016.7 |
| 20260901214753 | 65 | 355 | 0.0 | 2.0 | 0.00 | 0.75 | 0.75 | 95 | 1016.7 |
| 20260901214250 | 66 | 355 | 0.0 | 2.0 | 0.00 | 0.75 | 0.75 | 95 | 1016.7 |
| 20260901213750 | 66 | 355 | 1.0 | 3.0 | 0.00 | 0.75 | 0.75 | 95 | 1016.5 |
| 20260901213249 | 66 | 313 | 0.0 | 2.0 | 0.00 | 0.75 | 0.75 | 96 | 1016.5 |
| 20260901212749 | 66 | 309 | 0.0 | 2.0 | 0.00 | 0.75 | 0.75 | 96 | 1016.5 |
| 20260901212249 | 66 | 309 | 1.0 | 2.0 | 0.00 | 0.75 | 0.75 | 95 | 1016.5 |
| 20260901211749 | 66 | 304 | 0.0 | 3.0 | 0.00 | 0.75 | 0.75 | 96 | 1016.5 |
| 20260901211250 | 67 | 304 | 1.0 | 3.0 | 0.00 | 0.75 | 0.75 | 96 | 1016.5 |
| 20260901210758 | 67 | 240 | 0.0 | 2.0 | 0.00 | 0.75 | 0.75 | 96 | 1016.4 |
| 20260901210250 | 67 | 240 | 0.0 | 2.0 | 0.00 | 0.75 | 0.75 | 96 | 1016.4 |
| 20260901205752 | 67 | 240 | 0.0 | 1.0 | 0.00 | 0.75 | 0.75 | 96 | 1016.4 |
| 20260901205308 | 67 | 240 | 0.0 | 2.0 | 0.00 | 0.75 | 0.75 | 96 | 1016.2 |
| 20260901204750 | 67 | 240 | 0.0 | 2.0 | 0.00 | 0.75 | 0.75 | 96 | 1016.2 |
| 20260901204247 | 67 | 238 | 0.0 | 1.0 | 0.00 | 0.75 | 0.75 | 96 | 1016.2 |
| 20260901203748 | 67 | 238 | 0.0 | 3.0 | 0.00 | 0.75 | 0.75 | 96 | 1016.2 |
| 20260901203251 | 67 | 238 | 1.0 | 3.0 | 0.00 | 0.75 | 0.75 | 96 | 1016.2 |
| 20260901202750 | 67 | 233 | 0.0 | 0.0 | 0.00 | 0.75 | 0.75 | 96 | 1016.2 |
| 20260901202313 | 67 | 233 | 0.0 | 0.0 | 0.01 | 0.75 | 0.75 | 96 | 1015.9 |
| 20260901201802 | 67 | 233 | 0.0 | 1.0 | 0.03 | 0.75 | 0.75 | 96 | 1015.9 |
| 20260901201306 | 67 | 233 | 0.0 | 2.0 | 0.04 | 0.75 | 0.75 | 96 | 1015.9 |
| 20260901200805 | 68 | 233 | 0.0 | 2.0 | 0.04 | 0.75 | 0.75 | 96 | 1015.8 |